Location: Muenchen
(48.1800°N, 11.5800°E)
Time: 17:23:13
(UTC+01:00)

ISS - Visible Passes

Search period start: 21 November 2014 00:00
Search period end: 01 December 2014 00:00
Orbit: 408 x 417 km, 51.6° (Epoch: 21 November)

Date Brightness Start Highest point End Pass type
(mag) Time Alt. Az. Time Alt. Az. Time Alt. Az.
21 Nov -2.0 05:10:43 36° NE 05:10:43 36° NE 05:13:07 10° ENE visible
21 Nov -3.3 06:43:33 10° WNW 06:46:49 86° NNE 06:50:08 10° ESE visible
22 Nov 0.1 04:23:08 12° ENE 04:23:08 12° ENE 04:23:25 10° ENE visible
22 Nov -3.1 05:55:58 34° NW 05:57:11 65° NNE 06:00:29 10° E visible
23 Nov -2.0 05:08:22 38° ENE 05:08:22 38° ENE 05:10:43 10° E visible
23 Nov -2.8 06:41:11 12° WNW 06:44:09 49° SSW 06:47:22 10° SE visible
24 Nov 0.3 04:20:44 11° E 04:20:44 11° E 04:20:54 10° E visible
24 Nov -3.3 05:53:34 43° W 05:54:30 75° SSW 05:57:48 10° ESE visible
25 Nov -1.8 05:05:56 37° E 05:05:56 37° E 05:08:04 10° ESE visible
25 Nov -1.7 06:38:45 12° W 06:41:09 23° SW 06:43:51 10° SSE visible
26 Nov -2.5 05:51:08 35° SW 05:51:30 36° SW 05:54:34 10° SE visible
27 Nov -1.2 05:03:31 24° SE 05:03:31 24° SE 05:04:59 10° SE visible
27 Nov -0.9 06:36:56 10° WSW 06:37:47 11° SW 06:38:39 10° SSW visible
28 Nov -1.2 05:48:45 17° SSW 05:48:45 17° SSW 05:50:25 10° S visible
29 Nov -0.2 05:01:11 10° SSE 05:01:11 10° SSE 05:01:14 10° SSE visible
